Regional Weather Roundup
Issued by NWS Sioux Falls, SD

Home | Current Version | Previous Version | Text Only | Print | Product List | Glossary On
Versions: 1 2 3 4 5 6 7 8 9 10 11 12 13 14 15 16 17 18 19 20 21 22 23 24 25 26 27 28 29 30 31 32 33 34 35 36 37 38 39 40 41 42 43 44 45 46 47 48 49 50
000
ASUS43 KFSD 031110
RWRFSD

WEATHER ROUNDUP FOR SE SOUTH DAKOTA/SW MINNESOTA/NW IOWA
NATIONAL WEATHER SERVICE SIOUX FALLS SD
600 AM CDT SUN MAY 03 2015

NOTE: "FAIR" INDICATES FEW OR NO CLOUDS BELOW 12,000 FEET WITH NO
SIGNIFICANT WEATHER AND OR OBSTRUCTIONS TO VISIBILITY.


SDZ038>040-050-052>070-031200-
SOUTHEAST SOUTH DAKOTA

CITY           SKY/WX    TMP DP  RH WIND       PRES   REMARKS
BROOKINGS      PTCLDY    57  54  88 SE8       29.71S
CHAMBERLAIN    MOCLDY    55  51  86 SE3       29.68S
HURON          CLEAR     57  53  86 CALM      29.67R
MADISON        FAIR      59  59 100 CALM      29.71R
MITCHELL       PTCLDY    60  54  80 S8        29.68F
SIOUX FALLS    PTCLDY    57  52  83 SW3       29.69F
WINNER         FAIR      53  39  59 CALM      29.68S
YANKTON        PTCLDY    66  52  59 SW13      29.66S
$$

MNZ071-072-080-081-089-090-097-098-031200-
SOUTHWEST MINNESOTA

CITY           SKY/WX    TMP DP  RH WIND       PRES   REMARKS
FAIRMONT       CLOUDY    54  46  76 S8        29.74S
JACKSON        CLOUDY    54  50  87 S7        29.74S
LUVERNE        PTCLDY    55  50  82 N9        29.73R
MARSHALL       MOCLDY    55  48  76 S8        29.70F
MONTEVIDEO     MOCLDY    55  52  88 SE7       29.72S
REDWOOD FALLS  CLOUDY    54  50  86 E6        29.72R
TRACY          CLOUDY    56  52  85 SW3       29.72R
WORTHINGTON    CLOUDY    50  46  87 SE7       29.74S
$$

IAZ001>003-012>014-020>022-031-032-NEZ013-014-SDZ071-031200-
NORTHWEST IOWA

CITY           SKY/WX    TMP DP  RH WIND       PRES   REMARKS
CHEROKEE       PTCLDY    48  48 100 CALM      29.72S
DENISON        PTCLDY    59  59 100 SW8G14    29.72R
ESTHERVILLE    CLOUDY    52  50  93 S8        29.73F
LE MARS        CLEAR     59  50  72 S8        29.71S
ORANGE CITY    PTCLDY    55  48  76 S7        29.71R
SHELDON        MOCLDY    54  52  94 CALM      29.71R
SIOUX CITY     CLEAR     61  49  64 SE5       29.70F
SPENCER        CLOUDY    51  48  89 E5        29.73S
STORM LAKE     MOCLDY    52  50  93 S5        29.75R
$$

ABBREVIATIONS USED IN REMARKS
   TC - TEMPERATURE IN CELSIUS
  WCI - WIND CHILL INDEX
   HX - HEAT INDEX
  VSB - VISIBILITY



USA.gov is the U.S. government's official web portal to all federal, state and local government web resources and services.